Simultaneous Nadir Overpasses (SNOs) Predictions

Prediction of SNOs between LANDSAT-8 and NOAA-19 Satellite Orbit:

Table of predicted SNOs for the next 14.0 days since TLE Epoch: 9/10/2022
Index Date (LANDSAT-8) Time (LANDSAT-8) Lat,Lon (LANDSAT-8) SZA (LANDSAT-8 ) Date (NOAA-19) Time (NOAA-19) Lat,Lon (NOAA-19) SZA (NOAA-19 ) Distance(km) Time Diff (sec)
1 09/11/2022 02:35:33 -80.84, -2.71 101.93 09/11/2022 02:34:43 -80.85, -2.53 101.92 3.35 50
2 09/11/2022 03:24:59 80.85, 165.02 78.10 09/11/2022 03:25:39 80.85, 164.95 78.11 1.19 40
3 09/13/2022 08:58:44 -80.86, -98.28 101.01 09/13/2022 08:58:34 -80.85, -98.37 101.03 1.68 10
4 09/15/2022 14:32:29 80.84, -1.89 79.84 09/15/2022 14:31:24 80.86, -1.95 79.81 1.86 65
5 09/15/2022 15:21:56 -80.84, 165.74 100.16 09/15/2022 15:22:25 -80.85, 165.75 100.14 0.74 29
6 09/17/2022 20:55:40 80.85, -97.60 80.74 09/17/2022 20:55:15 80.86, -97.69 80.73 1.68 25
7 09/17/2022 21:45:07 -80.85, 70.05 99.25 09/17/2022 21:46:15 -80.85, 70.20 99.21 2.70 68
8 09/20/2022 03:18:51 80.85, 166.64 81.64 09/20/2022 03:19:06 80.85, 166.54 81.64 1.76 15
9 09/22/2022 08:52:36 -80.85, -96.80 97.48 09/22/2022 08:51:59 -80.86, -96.93 97.51 2.32 37



Historial Predications of SNOs between LANDSAT-8 and NOAA-19
